This demonstration page uses our WeatherBlox Daily Observations layout. Learn more.

Left ArrowRight Arrow

36.17497, -115.13722

Hourly Observations for May 2, 2017

Temp ( °F °C ) Dew Point ( °F °C ) Humidity (%) Winds ( mph kmh ) Pressure ( in mb ) Visibility ( mi km ) Precip ( " mm )
12:53 am 00:53 Clear 74 23.3 25 -3.9 16 16 N 8 13 29.87 1012 10 16 0.00 0.00
1:53 am 01:53 Clear 72 22.2 24 -4.4 17 17 NNW 10 17 29.86 1011 10 16 0.00 0.00
2:53 am 02:53 Clear 71 21.7 24 -4.4 17 17 NE 8 13 29.87 1011 10 16 0.00 0.00
3:53 am 03:53 Clear 71 21.7 23 -5 16 16 N 12 19 29.88 1012 10 16 0.00 0.00
4:53 am 04:53 Clear 69 20.6 24 -4.4 18 18 N 10 17 29.89 1012 10 16 0.00 0.00
5:53 am 05:53 Sunny 68 20 24 -4.4 19 19 NNW 12 19 29.91 1013 10 16 0.00 0.00
6:53 am 06:53 Sunny 70 21.1 25 -3.9 18 18 N 9 15 29.93 1013 10 16 0.00 0.00
7:53 am 07:53 Sunny 75 23.9 26 -3.3 16 16 N 14 22 29.94 1014 10 16 0.00 0.00
8:53 am 08:53 Sunny 80 26.7 26 -3.3 14 14 NNW 14 22 29.93 1014 10 16 0.00 0.00
9:53 am 09:53 Sunny 83 28.3 26 -3.3 12 12 N 10 17 29.93 1014 10 16 0.00 0.00
10:53 am 10:53 Sunny 84 28.9 26 -3.3 12 12 NE 8 13 29.94 1014 10 16 0.00 0.00
11:53 am 11:53 Sunny 85 29.4 27 -2.8 12 12 VRB 5 7 29.93 1013 10 16 0.00 0.00
12:53 pm 12:53 Sunny 87 30.6 26 -3.3 11 11 Calm 29.90 1012 10 16 0.00 0.00
1:53 pm 13:53 Sunny 88 31.1 26 -3.3 10 10 WNW 6 9 29.87 1012 10 16 0.00 0.00
2:53 pm 14:53 Sunny 90 32.2 27 -2.8 10 10 SW 10 17 29.84 1011 10 16 0.00 0.00
3:53 pm 15:53 Sunny 92 33.3 26 -3.3 9 9 NW 12 19 29.82 1010 10 16 0.00 0.00
4:53 pm 16:53 Sunny 93 33.9 27 -2.8 9 9 N 16 26 29.79 1009 10 16 0.00 0.00
5:53 pm 17:53 Sunny 92 33.3 28 -2.2 10 10 N 16 26 29.79 1009 10 16 0.00 0.00
6:53 pm 18:53 Sunny 90 32.2 28 -2.2 11 11 VRB 6 9 29.79 1009 10 16 0.00 0.00
7:53 pm 19:53 Clear 85 29.4 28 -2.2 13 13 ESE 6 9 29.80 1009 10 16 0.00 0.00
8:53 pm 20:53 Clear 84 28.9 29 -1.7 13 13 Calm 29.83 1010 10 16 0.00 0.00
9:53 pm 21:53 Clear 80 26.7 31 -0.6 17 17 WNW 7 11 29.85 1011 10 16 0.00 0.00
10:53 pm 22:53 Clear 78 25.6 33 0.6 19 19 NNW 6 9 29.87 1011 10 16 0.00 0.00
11:53 pm 23:53 Clear 78 25.6 32 0 19 19 WNW 5 7 29.88 1012 10 16 0.00 0.00

Powered by AerisWeather